User: anonymous   Login
Location: Brookfield Village
(37.7352°N, 122.1861°W)
Time: 02:43:45
(UTC+00:00)
Language:

Cosmos 2237 Rocket - Orbit

View from above orbital plane
View from above orbital plane
View from above satellite
View from above satellite

Ground track
Ground track

The orbit data is extracted from the following two-line orbital elements,

1 22566U 93016B   24287.21032528  .00000162  00000-0  10786-3 0  9990
2 22566  71.0072 211.4488 0009649  11.0223 349.1109 14.15174960629669
Epoch (UTC): 13 October 2024 05:02:52
Eccentricity: 0.0009649
inclination: 71.0072°
perigee height: 835 km
apogee height: 848 km
right ascension of ascending node: 211.4488°
argument of perigee: 11.0223°
revolutions per day: 14.15174960
mean anomaly at epoch: 349.1109°
orbit number at epoch: 62966

The dashed part of the orbit path shows where the satellite is in the earth's shadow,  

DLR